owner,sensor,date,latitude,longitude,vertical_datum,sea_water_temperature,qcFlag 
SCCF RECON,ioos:station:SCCF:53:1,2010-05-01T00:00:00Z,26.6493,-81.8810,2.11,25.91,2 
SCCF RECON,ioos:station:SCCF:53:1,2010-05-01T01:00:00Z,26.6493,-81.8810,2.11,25.92,2 
SCCF RECON,ioos:station:SCCF:53:1,2010-05-01T02:00:00Z,26.6493,-81.8810,2.11,25.91,2 
SCCF RECON,ioos:station:SCCF:53:1,2010-05-01T03:00:00Z,26.6493,-81.8810,2.11,25.8,2 
SCCF RECON,ioos:station:SCCF:53:1,2010-05-01T04:00:00Z,26.6493,-81.8810,2.11,25.76,2 
SCCF RECON,ioos:station:SCCF:53:1,2010-05-01T05:00:00Z,26.6493,-81.8810,2.11,25.82,2 
SCCF RECON,ioos:station:SCCF:53:1,2010-05-01T06:00:00Z,26.6493,-81.8810,2.11,25.76,2 
SCCF RECON,ioos:station:SCCF:53:1,2010-05-01T07:00:00Z,26.6493,-81.8810,2.11,25.73,2 
SCCF RECON,ioos:station:SCCF:53:1,2010-05-01T08:00:00Z,26.6493,-81.8810,2.11,25.75,2 
SCCF RECON,ioos:station:SCCF:53:1,2010-05-01T09:00:00Z,26.6493,-81.8810,2.11,25.64,2 
SCCF RECON,ioos:station:SCCF:53:1,2010-05-01T10:00:00Z,26.6493,-81.8810,2.11,25.56,2 
SCCF RECON,ioos:station:SCCF:53:1,2010-05-01T11:00:00Z,26.6493,-81.8810,2.11,25.54,2 
SCCF RECON,ioos:station:SCCF:53:1,2010-05-01T12:00:00Z,26.6493,-81.8810,2.11,25.48,2 
SCCF RECON,ioos:station:SCCF:53:1,2010-05-01T13:00:00Z,26.6493,-81.8810,2.11,25.49,2 
SCCF RECON,ioos:station:SCCF:53:1,2010-05-01T14:00:00Z,26.6493,-81.8810,2.11,25.52,2 
SCCF RECON,ioos:station:SCCF:53:1,2010-05-01T15:00:00Z,26.6493,-81.8810,2.11,25.81,2 
SCCF RECON,ioos:station:SCCF:53:1,2010-05-01T16:00:00Z,26.6493,-81.8810,2.11,25.85,2 
SCCF RECON,ioos:station:SCCF:53:1,2010-05-01T17:00:00Z,26.6493,-81.8810,2.11,25.98,2 
SCCF RECON,ioos:station:SCCF:53:1,2010-05-01T18:00:00Z,26.6493,-81.8810,2.11,26.3,2 
SCCF RECON,ioos:station:SCCF:53:1,2010-05-01T19:00:00Z,26.6493,-81.8810,2.11,26.27,2 
SCCF RECON,ioos:station:SCCF:53:1,2010-05-01T20:00:00Z,26.6493,-81.8810,2.11,26.48,2 
SCCF RECON,ioos:station:SCCF:53:1,2010-05-01T21:00:00Z,26.6493,-81.8810,2.11,26.66,2 
SCCF RECON,ioos:station:SCCF:53:1,2010-05-01T22:00:00Z,26.6493,-81.8810,2.11,26.8,2 
SCCF RECON,ioos:station:SCCF:53:1,2010-05-01T23:00:00Z,26.6493,-81.8810,2.11,26.87,2 
SCCF RECON,ioos:station:SCCF:53:1,2010-05-02T00:00:00Z,26.6493,-81.8810,2.11,26.91,2 
SCCF RECON,ioos:station:SCCF:53:1,2010-05-02T01:00:00Z,26.6493,-81.8810,2.11,26.82,2 
SCCF RECON,ioos:station:SCCF:53:1,2010-05-02T02:00:00Z,26.6493,-81.8810,2.11,26.84,2 
SCCF RECON,ioos:station:SCCF:53:1,2010-05-02T03:00:00Z,26.6493,-81.8810,2.11,26.8,2 
SCCF RECON,ioos:station:SCCF:53:1,2010-05-02T04:00:00Z,26.6493,-81.8810,2.11,26.9,2 
SCCF RECON,ioos:station:SCCF:53:1,2010-05-02T05:00:00Z,26.6493,-81.8810,2.11,27.1,2 
SCCF RECON,ioos:station:SCCF:53:1,2010-05-02T06:00:00Z,26.6493,-81.8810,2.11,27.06,2 
SCCF RECON,ioos:station:SCCF:53:1,2010-05-02T07:00:00Z,26.6493,-81.8810,2.11,27.21,2 
SCCF RECON,ioos:station:SCCF:53:1,2010-05-02T08:00:00Z,26.6493,-81.8810,2.11,27.16,2 
SCCF RECON,ioos:station:SCCF:53:1,2010-05-02T09:00:00Z,26.6493,-81.8810,2.11,27.12,2 
SCCF RECON,ioos:station:SCCF:53:1,2010-05-02T10:00:00Z,26.6493,-81.8810,2.11,26.86,2 
SCCF RECON,ioos:station:SCCF:53:1,2010-05-02T11:00:00Z,26.6493,-81.8810,2.11,26.83,2 
SCCF RECON,ioos:station:SCCF:53:1,2010-05-02T12:00:00Z,26.6493,-81.8810,2.11,26.75,2 
SCCF RECON,ioos:station:SCCF:53:1,2010-05-02T13:00:00Z,26.6493,-81.8810,2.11,26.69,2 
SCCF RECON,ioos:station:SCCF:53:1,2010-05-02T14:00:00Z,26.6493,-81.8810,2.11,26.7,2 
SCCF RECON,ioos:station:SCCF:53:1,2010-05-02T15:00:00Z,26.6493,-81.8810,2.11,26.81,2 
SCCF RECON,ioos:station:SCCF:53:1,2010-05-02T16:00:00Z,26.6493,-81.8810,2.11,27.21,2 
SCCF RECON,ioos:station:SCCF:53:1,2010-05-02T17:00:00Z,26.6493,-81.8810,2.11,27.4,2 
SCCF RECON,ioos:station:SCCF:53:1,2010-05-02T18:00:00Z,26.6493,-81.8810,2.11,27.45,2 
SCCF RECON,ioos:station:SCCF:53:1,2010-05-02T19:00:00Z,26.6493,-81.8810,2.11,27.69,2 
SCCF RECON,ioos:station:SCCF:53:1,2010-05-02T20:00:00Z,26.6493,-81.8810,2.11,27.75,2 
SCCF RECON,ioos:station:SCCF:53:1,2010-05-02T21:00:00Z,26.6493,-81.8810,2.11,27.74,2 
SCCF RECON,ioos:station:SCCF:53:1,2010-05-02T22:00:00Z,26.6493,-81.8810,2.11,27.82,2 
SCCF RECON,ioos:station:SCCF:53:1,2010-05-02T23:00:00Z,26.6493,-81.8810,2.11,27.88,2 
SCCF RECON,ioos:station:SCCF:53:1,2010-05-03T00:00:00Z,26.6493,-81.8810,2.11,27.87,2 
SCCF RECON,ioos:station:SCCF:53:1,2010-05-03T01:00:00Z,26.6493,-81.8810,2.11,27.89,2 
SCCF RECON,ioos:station:SCCF:53:1,2010-05-03T02:00:00Z,26.6493,-81.8810,2.11,28.07,2 
SCCF RECON,ioos:station:SCCF:53:1,2010-05-03T03:00:00Z,26.6493,-81.8810,2.11,28.17,2 
SCCF RECON,ioos:station:SCCF:53:1,2010-05-03T04:00:00Z,26.6493,-81.8810,2.11,28.16,2 
SCCF RECON,ioos:station:SCCF:53:1,2010-05-03T05:00:00Z,26.6493,-81.8810,2.11,28.11,2 
SCCF RECON,ioos:station:SCCF:53:1,2010-05-03T06:00:00Z,26.6493,-81.8810,2.11,28.3,2 
SCCF RECON,ioos:station:SCCF:53:1,2010-05-03T07:00:00Z,26.6493,-81.8810,2.11,28.31,2 
SCCF RECON,ioos:station:SCCF:53:1,2010-05-03T08:00:00Z,26.6493,-81.8810,2.11,28.19,2 
SCCF RECON,ioos:station:SCCF:53:1,2010-05-03T09:00:00Z,26.6493,-81.8810,2.11,28.18,2 
SCCF RECON,ioos:station:SCCF:53:1,2010-05-03T10:00:00Z,26.6493,-81.8810,2.11,28.1,2 
SCCF RECON,ioos:station:SCCF:53:1,2010-05-03T11:00:00Z,26.6493,-81.8810,2.11,28.05,2 
SCCF RECON,ioos:station:SCCF:53:1,2010-05-03T12:00:00Z,26.6493,-81.8810,2.11,27.96,2 
SCCF RECON,ioos:station:SCCF:53:1,2010-05-03T13:00:00Z,26.6493,-81.8810,2.11,27.84,2 
SCCF RECON,ioos:station:SCCF:53:1,2010-05-03T14:00:00Z,26.6493,-81.8810,2.11,27.92,2 
SCCF RECON,ioos:station:SCCF:53:1,2010-05-03T15:00:00Z,26.6493,-81.8810,2.11,28.01,2 
SCCF RECON,ioos:station:SCCF:53:1,2010-05-03T16:00:00Z,26.6493,-81.8810,2.11,28.23,2 
SCCF RECON,ioos:station:SCCF:53:1,2010-05-03T17:00:00Z,26.6493,-81.8810,2.11,28.3,2 
SCCF RECON,ioos:station:SCCF:53:1,2010-05-03T18:00:00Z,26.6493,-81.8810,2.11,28.31,2 
SCCF RECON,ioos:station:SCCF:53:1,2010-05-03T19:00:00Z,26.6493,-81.8810,2.11,28.68,2 
SCCF RECON,ioos:station:SCCF:53:1,2010-05-03T20:00:00Z,26.6493,-81.8810,2.11,28.9,2 
SCCF RECON,ioos:station:SCCF:53:1,2010-05-03T21:00:00Z,26.6493,-81.8810,2.11,29.04,2 
SCCF RECON,ioos:station:SCCF:53:1,2010-05-03T22:00:00Z,26.6493,-81.8810,2.11,29.07,2 
SCCF RECON,ioos:station:SCCF:53:1,2010-05-03T23:00:00Z,26.6493,-81.8810,2.11,29.13,2 
SCCF RECON,ioos:station:SCCF:53:1,2010-05-04T00:00:00Z,26.6493,-81.8810,2.11,28.9,2 
SCCF RECON,ioos:station:SCCF:53:1,2010-05-04T01:00:00Z,26.6493,-81.8810,2.11,29.14,2 
SCCF RECON,ioos:station:SCCF:53:1,2010-05-04T02:00:00Z,26.6493,-81.8810,2.11,28.86,2 
SCCF RECON,ioos:station:SCCF:53:1,2010-05-04T03:00:00Z,26.6493,-81.8810,2.11,29.03,2 
SCCF RECON,ioos:station:SCCF:53:1,2010-05-04T04:00:00Z,26.6493,-81.8810,2.11,29.13,2 
SCCF RECON,ioos:station:SCCF:53:1,2010-05-04T05:00:00Z,26.6493,-81.8810,2.11,29.1,2 
SCCF RECON,ioos:station:SCCF:53:1,2010-05-04T06:00:00Z,26.6493,-81.8810,2.11,29.19,2 
SCCF RECON,ioos:station:SCCF:53:1,2010-05-04T07:00:00Z,26.6493,-81.8810,2.11,29.09,2 
SCCF RECON,ioos:station:SCCF:53:1,2010-05-04T08:00:00Z,26.6493,-81.8810,2.11,29.12,2 
SCCF RECON,ioos:station:SCCF:53:1,2010-05-04T09:00:00Z,26.6493,-81.8810,2.11,29.1,2 
SCCF RECON,ioos:station:SCCF:53:1,2010-05-04T10:00:00Z,26.6493,-81.8810,2.11,28.98,2 
SCCF RECON,ioos:station:SCCF:53:1,2010-05-04T11:00:00Z,26.6493,-81.8810,2.11,28.9,2 
SCCF RECON,ioos:station:SCCF:53:1,2010-05-04T12:00:00Z,26.6493,-81.8810,2.11,28.86,2 
SCCF RECON,ioos:station:SCCF:53:1,2010-05-04T13:00:00Z,26.6493,-81.8810,2.11,28.83,2 
SCCF RECON,ioos:station:SCCF:53:1,2010-05-04T14:00:00Z,26.6493,-81.8810,2.11,28.82,2 
SCCF RECON,ioos:station:SCCF:53:1,2010-05-04T15:00:00Z,26.6493,-81.8810,2.11,28.93,2 
SCCF RECON,ioos:station:SCCF:53:1,2010-05-04T16:00:00Z,26.6493,-81.8810,2.11,28.98,2 
SCCF RECON,ioos:station:SCCF:53:1,2010-05-04T17:00:00Z,26.6493,-81.8810,2.11,29.07,2 
SCCF RECON,ioos:station:SCCF:53:1,2010-05-04T18:00:00Z,26.6493,-81.8810,2.11,29.16,2 
SCCF RECON,ioos:station:SCCF:53:1,2010-05-04T19:00:00Z,26.6493,-81.8810,2.11,29.3,2 
SCCF RECON,ioos:station:SCCF:53:1,2010-05-04T20:00:00Z,26.6493,-81.8810,2.11,29.66,2 
SCCF RECON,ioos:station:SCCF:53:1,2010-05-04T21:00:00Z,26.6493,-81.8810,2.11,29.72,2 
SCCF RECON,ioos:station:SCCF:53:1,2010-05-04T22:00:00Z,26.6493,-81.8810,2.11,29.73,2 
SCCF RECON,ioos:station:SCCF:53:1,2010-05-04T23:00:00Z,26.6493,-81.8810,2.11,29.78,2 
SCCF RECON,ioos:station:SCCF:53:1,2010-05-05T00:00:00Z,26.6493,-81.8810,2.11,29.66,2 
SCCF RECON,ioos:station:SCCF:53:1,2010-05-05T01:00:00Z,26.6493,-81.8810,2.11,29.43,2 
SCCF RECON,ioos:station:SCCF:53:1,2010-05-05T02:00:00Z,26.6493,-81.8810,2.11,29.38,2 
SCCF RECON,ioos:station:SCCF:53:1,2010-05-05T03:00:00Z,26.6493,-81.8810,2.11,29.32,2 
SCCF RECON,ioos:station:SCCF:53:1,2010-05-05T04:00:00Z,26.6493,-81.8810,2.11,29.28,2 
SCCF RECON,ioos:station:SCCF:53:1,2010-05-05T05:00:00Z,26.6493,-81.8810,2.11,29.05,2 
SCCF RECON,ioos:station:SCCF:53:1,2010-05-05T06:00:00Z,26.6493,-81.8810,2.11,28.93,2 
SCCF RECON,ioos:station:SCCF:53:1,2010-05-05T07:00:00Z,26.6493,-81.8810,2.11,28.83,2 
SCCF RECON,ioos:station:SCCF:53:1,2010-05-05T08:00:00Z,26.6493,-81.8810,2.11,28.8,2 
SCCF RECON,ioos:station:SCCF:53:1,2010-05-05T09:00:00Z,26.6493,-81.8810,2.11,28.86,2 
SCCF RECON,ioos:station:SCCF:53:1,2010-05-05T10:00:00Z,26.6493,-81.8810,2.11,28.79,2 
SCCF RECON,ioos:station:SCCF:53:1,2010-05-05T11:00:00Z,26.6493,-81.8810,2.11,28.73,2 
SCCF RECON,ioos:station:SCCF:53:1,2010-05-05T12:00:00Z,26.6493,-81.8810,2.11,28.68,2 
SCCF RECON,ioos:station:SCCF:53:1,2010-05-05T13:00:00Z,26.6493,-81.8810,2.11,28.72,2 
SCCF RECON,ioos:station:SCCF:53:1,2010-05-05T14:00:00Z,26.6493,-81.8810,2.11,28.71,2 
SCCF RECON,ioos:station:SCCF:53:1,2010-05-05T15:00:00Z,26.6493,-81.8810,2.11,28.79,2 
SCCF RECON,ioos:station:SCCF:53:1,2010-05-05T16:00:00Z,26.6493,-81.8810,2.11,28.92,2 
SCCF RECON,ioos:station:SCCF:53:1,2010-05-05T17:00:00Z,26.6493,-81.8810,2.11,29.01,2 
SCCF RECON,ioos:station:SCCF:53:1,2010-05-05T18:00:00Z,26.6493,-81.8810,2.11,28.98,2 
SCCF RECON,ioos:station:SCCF:53:1,2010-05-05T19:00:00Z,26.6493,-81.8810,2.11,29.04,2 
SCCF RECON,ioos:station:SCCF:53:1,2010-05-05T20:00:00Z,26.6493,-81.8810,2.11,29.18,2 
SCCF RECON,ioos:station:SCCF:53:1,2010-05-05T21:00:00Z,26.6493,-81.8810,2.11,29.14,2 
SCCF RECON,ioos:station:SCCF:53:1,2010-05-05T22:00:00Z,26.6493,-81.8810,2.11,29.4,2 
SCCF RECON,ioos:station:SCCF:53:1,2010-05-05T23:00:00Z,26.6493,-81.8810,2.11,29.63,2 
SCCF RECON,ioos:station:SCCF:53:1,2010-05-06T00:00:00Z,26.6493,-81.8810,2.11,29.8,2 
SCCF RECON,ioos:station:SCCF:53:1,2010-05-06T01:00:00Z,26.6493,-81.8810,2.11,29.86,2 
SCCF RECON,ioos:station:SCCF:53:1,2010-05-06T02:00:00Z,26.6493,-81.8810,2.11,29.5,2 
SCCF RECON,ioos:station:SCCF:53:1,2010-05-06T03:00:00Z,26.6493,-81.8810,2.11,29.31,2 
SCCF RECON,ioos:station:SCCF:53:1,2010-05-06T04:00:00Z,26.6493,-81.8810,2.11,29.34,2 
SCCF RECON,ioos:station:SCCF:53:1,2010-05-06T05:00:00Z,26.6493,-81.8810,2.11,29.42,2 
SCCF RECON,ioos:station:SCCF:53:1,2010-05-06T06:00:00Z,26.6493,-81.8810,2.11,29.34,2 
SCCF RECON,ioos:station:SCCF:53:1,2010-05-06T07:00:00Z,26.6493,-81.8810,2.11,29.29,2 
SCCF RECON,ioos:station:SCCF:53:1,2010-05-06T08:00:00Z,26.6493,-81.8810,2.11,29.28,2 
SCCF RECON,ioos:station:SCCF:53:1,2010-05-06T09:00:00Z,26.6493,-81.8810,2.11,29.24,2 
SCCF RECON,ioos:station:SCCF:53:1,2010-05-06T10:00:00Z,26.6493,-81.8810,2.11,29.3,2 
SCCF RECON,ioos:station:SCCF:53:1,2010-05-06T11:00:00Z,26.6493,-81.8810,2.11,29.25,2 
SCCF RECON,ioos:station:SCCF:53:1,2010-05-06T12:00:00Z,26.6493,-81.8810,2.11,29.19,2 
SCCF RECON,ioos:station:SCCF:53:1,2010-05-06T13:00:00Z,26.6493,-81.8810,2.11,29.18,2 
SCCF RECON,ioos:station:SCCF:53:1,2010-05-06T14:00:00Z,26.6493,-81.8810,2.11,29.06,2 
SCCF RECON,ioos:station:SCCF:53:1,2010-05-06T15:00:00Z,26.6493,-81.8810,2.11,29.09,2 
SCCF RECON,ioos:station:SCCF:53:1,2010-05-06T16:00:00Z,26.6493,-81.8810,2.11,28.97,2 
SCCF RECON,ioos:station:SCCF:53:1,2010-05-06T17:00:00Z,26.6493,-81.8810,2.11,29.07,2 
SCCF RECON,ioos:station:SCCF:53:1,2010-05-06T18:00:00Z,26.6493,-81.8810,2.11,29.54,2 
SCCF RECON,ioos:station:SCCF:53:1,2010-05-06T19:00:00Z,26.6493,-81.8810,2.11,29.62,2 
SCCF RECON,ioos:station:SCCF:53:1,2010-05-06T20:00:00Z,26.6493,-81.8810,2.11,29.34,2 
SCCF RECON,ioos:station:SCCF:53:1,2010-05-06T21:00:00Z,26.6493,-81.8810,2.11,29.76,2 
SCCF RECON,ioos:station:SCCF:53:1,2010-05-06T22:00:00Z,26.6493,-81.8810,2.11,29.87,2 
SCCF RECON,ioos:station:SCCF:53:1,2010-05-06T23:00:00Z,26.6493,-81.8810,2.11,30.07,2 
SCCF RECON,ioos:station:SCCF:53:1,2010-05-07T00:00:00Z,26.6493,-81.8810,2.11,30.0,2 
SCCF RECON,ioos:station:SCCF:53:1,2010-05-07T01:00:00Z,26.6493,-81.8810,2.11,30.38,2 
SCCF RECON,ioos:station:SCCF:53:1,2010-05-07T02:00:00Z,26.6493,-81.8810,2.11,30.14,2 
SCCF RECON,ioos:station:SCCF:53:1,2010-05-07T03:00:00Z,26.6493,-81.8810,2.11,30.06,2 
SCCF RECON,ioos:station:SCCF:53:1,2010-05-07T04:00:00Z,26.6493,-81.8810,2.11,30.13,2 
SCCF RECON,ioos:station:SCCF:53:1,2010-05-07T05:00:00Z,26.6493,-81.8810,2.11,29.84,2 
SCCF RECON,ioos:station:SCCF:53:1,2010-05-07T06:00:00Z,26.6493,-81.8810,2.11,29.8,2 
SCCF RECON,ioos:station:SCCF:53:1,2010-05-07T07:00:00Z,26.6493,-81.8810,2.11,29.6,2 
SCCF RECON,ioos:station:SCCF:53:1,2010-05-07T08:00:00Z,26.6493,-81.8810,2.11,29.62,2 
SCCF RECON,ioos:station:SCCF:53:1,2010-05-07T09:00:00Z,26.6493,-81.8810,2.11,29.46,2 
SCCF RECON,ioos:station:SCCF:53:1,2010-05-07T10:00:00Z,26.6493,-81.8810,2.11,29.38,2 
SCCF RECON,ioos:station:SCCF:53:1,2010-05-07T11:00:00Z,26.6493,-81.8810,2.11,29.34,2 
SCCF RECON,ioos:station:SCCF:53:1,2010-05-07T12:00:00Z,26.6493,-81.8810,2.11,29.26,2 
SCCF RECON,ioos:station:SCCF:53:1,2010-05-07T13:00:00Z,26.6493,-81.8810,2.11,29.35,2 
SCCF RECON,ioos:station:SCCF:53:1,2010-05-07T14:00:00Z,26.6493,-81.8810,2.11,29.35,2 
SCCF RECON,ioos:station:SCCF:53:1,2010-05-07T15:00:00Z,26.6493,-81.8810,2.11,29.37,2 
SCCF RECON,ioos:station:SCCF:53:1,2010-05-07T16:00:00Z,26.6493,-81.8810,2.11,29.4,2 
SCCF RECON,ioos:station:SCCF:53:1,2010-05-07T17:00:00Z,26.6493,-81.8810,2.11,29.35,2 
SCCF RECON,ioos:station:SCCF:53:1,2010-05-07T18:00:00Z,26.6493,-81.8810,2.11,29.37,2 
SCCF RECON,ioos:station:SCCF:53:1,2010-05-07T19:00:00Z,26.6493,-81.8810,2.11,29.67,2 
SCCF RECON,ioos:station:SCCF:53:1,2010-05-07T20:00:00Z,26.6493,-81.8810,2.11,29.94,2 
SCCF RECON,ioos:station:SCCF:53:1,2010-05-07T21:00:00Z,26.6493,-81.8810,2.11,29.89,2 
SCCF RECON,ioos:station:SCCF:53:1,2010-05-07T22:00:00Z,26.6493,-81.8810,2.11,30.06,2 
SCCF RECON,ioos:station:SCCF:53:1,2010-05-07T23:00:00Z,26.6493,-81.8810,2.11,30.32,2 
SCCF RECON,ioos:station:SCCF:53:1,2010-05-08T00:00:00Z,26.6493,-81.8810,2.11,30.7,2 
SCCF RECON,ioos:station:SCCF:53:1,2010-05-08T01:00:00Z,26.6493,-81.8810,2.11,30.68,2 
SCCF RECON,ioos:station:SCCF:53:1,2010-05-08T02:00:00Z,26.6493,-81.8810,2.11,30.46,2 
SCCF RECON,ioos:station:SCCF:53:1,2010-05-08T03:00:00Z,26.6493,-81.8810,2.11,30.33,2 
SCCF RECON,ioos:station:SCCF:53:1,2010-05-08T04:00:00Z,26.6493,-81.8810,2.11,30.24,2 
SCCF RECON,ioos:station:SCCF:53:1,2010-05-08T05:00:00Z,26.6493,-81.8810,2.11,30.25,2 
SCCF RECON,ioos:station:SCCF:53:1,2010-05-08T06:00:00Z,26.6493,-81.8810,2.11,30.02,2 
SCCF RECON,ioos:station:SCCF:53:1,2010-05-08T07:00:00Z,26.6493,-81.8810,2.11,29.99,2 
SCCF RECON,ioos:station:SCCF:53:1,2010-05-08T08:00:00Z,26.6493,-81.8810,2.11,29.91,2 
SCCF RECON,ioos:station:SCCF:53:1,2010-05-08T09:00:00Z,26.6493,-81.8810,2.11,29.53,2 
SCCF RECON,ioos:station:SCCF:53:1,2010-05-08T10:00:00Z,26.6493,-81.8810,2.11,29.58,2 
SCCF RECON,ioos:station:SCCF:53:1,2010-05-08T11:00:00Z,26.6493,-81.8810,2.11,29.38,2 
SCCF RECON,ioos:station:SCCF:53:1,2010-05-08T12:00:00Z,26.6493,-81.8810,2.11,29.34,2 
SCCF RECON,ioos:station:SCCF:53:1,2010-05-08T13:00:00Z,26.6493,-81.8810,2.11,29.37,2 
SCCF RECON,ioos:station:SCCF:53:1,2010-05-08T14:00:00Z,26.6493,-81.8810,2.11,29.39,2 
SCCF RECON,ioos:station:SCCF:53:1,2010-05-08T15:00:00Z,26.6493,-81.8810,2.11,29.46,2 
SCCF RECON,ioos:station:SCCF:53:1,2010-05-08T16:00:00Z,26.6493,-81.8810,2.11,29.6,2 
SCCF RECON,ioos:station:SCCF:53:1,2010-05-08T17:00:00Z,26.6493,-81.8810,2.11,29.83,2 
SCCF RECON,ioos:station:SCCF:53:1,2010-05-08T18:00:00Z,26.6493,-81.8810,2.11,29.71,2 
SCCF RECON,ioos:station:SCCF:53:1,2010-05-08T19:00:00Z,26.6493,-81.8810,2.11,29.89,2 
SCCF RECON,ioos:station:SCCF:53:1,2010-05-08T20:00:00Z,26.6493,-81.8810,2.11,30.48,2 
SCCF RECON,ioos:station:SCCF:53:1,2010-05-08T21:00:00Z,26.6493,-81.8810,2.11,30.97,2 
SCCF RECON,ioos:station:SCCF:53:1,2010-05-08T22:00:00Z,26.6493,-81.8810,2.11,31.1,2 
SCCF RECON,ioos:station:SCCF:53:1,2010-05-08T23:00:00Z,26.6493,-81.8810,2.11,31.14,2 
SCCF RECON,ioos:station:SCCF:53:1,2010-05-09T00:00:00Z,26.6493,-81.8810,2.11,31.03,2 
SCCF RECON,ioos:station:SCCF:53:1,2010-05-09T01:00:00Z,26.6493,-81.8810,2.11,30.73,2 
SCCF RECON,ioos:station:SCCF:53:1,2010-05-09T02:00:00Z,26.6493,-81.8810,2.11,30.77,2 
SCCF RECON,ioos:station:SCCF:53:1,2010-05-09T03:00:00Z,26.6493,-81.8810,2.11,30.66,2 
SCCF RECON,ioos:station:SCCF:53:1,2010-05-09T04:00:00Z,26.6493,-81.8810,2.11,30.55,2 
SCCF RECON,ioos:station:SCCF:53:1,2010-05-09T05:00:00Z,26.6493,-81.8810,2.11,30.52,2 
SCCF RECON,ioos:station:SCCF:53:1,2010-05-09T06:00:00Z,26.6493,-81.8810,2.11,30.41,2 
SCCF RECON,ioos:station:SCCF:53:1,2010-05-09T07:00:00Z,26.6493,-81.8810,2.11,30.33,2 
SCCF RECON,ioos:station:SCCF:53:1,2010-05-09T08:00:00Z,26.6493,-81.8810,2.11,30.1,2 
SCCF RECON,ioos:station:SCCF:53:1,2010-05-09T09:00:00Z,26.6493,-81.8810,2.11,29.94,2 
SCCF RECON,ioos:station:SCCF:53:1,2010-05-09T10:00:00Z,26.6493,-81.8810,2.11,29.94,2 
SCCF RECON,ioos:station:SCCF:53:1,2010-05-09T11:00:00Z,26.6493,-81.8810,2.11,29.56,2 
SCCF RECON,ioos:station:SCCF:53:1,2010-05-09T12:00:00Z,26.6493,-81.8810,2.11,29.49,2 
SCCF RECON,ioos:station:SCCF:53:1,2010-05-09T13:00:00Z,26.6493,-81.8810,2.11,29.49,2 
SCCF RECON,ioos:station:SCCF:53:1,2010-05-09T14:00:00Z,26.6493,-81.8810,2.11,29.58,2 
SCCF RECON,ioos:station:SCCF:53:1,2010-05-09T15:00:00Z,26.6493,-81.8810,2.11,29.69,2 
SCCF RECON,ioos:station:SCCF:53:1,2010-05-09T16:00:00Z,26.6493,-81.8810,2.11,29.72,2 
SCCF RECON,ioos:station:SCCF:53:1,2010-05-09T17:00:00Z,26.6493,-81.8810,2.11,29.67,2 
SCCF RECON,ioos:station:SCCF:53:1,2010-05-09T18:00:00Z,26.6493,-81.8810,2.11,29.6,2 
SCCF RECON,ioos:station:SCCF:53:1,2010-05-09T19:00:00Z,26.6493,-81.8810,2.11,29.68,2 
SCCF RECON,ioos:station:SCCF:53:1,2010-05-09T20:00:00Z,26.6493,-81.8810,2.11,29.55,2 
SCCF RECON,ioos:station:SCCF:53:1,2010-05-09T21:00:00Z,26.6493,-81.8810,2.11,29.79,2 
SCCF RECON,ioos:station:SCCF:53:1,2010-05-09T22:00:00Z,26.6493,-81.8810,2.11,29.85,2 
SCCF RECON,ioos:station:SCCF:53:1,2010-05-09T23:00:00Z,26.6493,-81.8810,2.11,30.76,2 
SCCF RECON,ioos:station:SCCF:53:1,2010-05-10T00:00:00Z,26.6493,-81.8810,2.11,30.69,2 
SCCF RECON,ioos:station:SCCF:53:1,2010-05-10T01:00:00Z,26.6493,-81.8810,2.11,30.46,2 
SCCF RECON,ioos:station:SCCF:53:1,2010-05-10T02:00:00Z,26.6493,-81.8810,2.11,30.22,2 
SCCF RECON,ioos:station:SCCF:53:1,2010-05-10T03:00:00Z,26.6493,-81.8810,2.11,30.2,2 
SCCF RECON,ioos:station:SCCF:53:1,2010-05-10T04:00:00Z,26.6493,-81.8810,2.11,30.22,2 
SCCF RECON,ioos:station:SCCF:53:1,2010-05-10T05:00:00Z,26.6493,-81.8810,2.11,30.16,2 
SCCF RECON,ioos:station:SCCF:53:1,2010-05-10T06:00:00Z,26.6493,-81.8810,2.11,30.14,2 
SCCF RECON,ioos:station:SCCF:53:1,2010-05-10T07:00:00Z,26.6493,-81.8810,2.11,29.94,2 
SCCF RECON,ioos:station:SCCF:53:1,2010-05-10T08:00:00Z,26.6493,-81.8810,2.11,29.86,2 
SCCF RECON,ioos:station:SCCF:53:1,2010-05-10T09:00:00Z,26.6493,-81.8810,2.11,29.52,2 
SCCF RECON,ioos:station:SCCF:53:1,2010-05-10T10:00:00Z,26.6493,-81.8810,2.11,29.28,2 
SCCF RECON,ioos:station:SCCF:53:1,2010-05-10T11:00:00Z,26.6493,-81.8810,2.11,28.84,2 
SCCF RECON,ioos:station:SCCF:53:1,2010-05-10T12:00:00Z,26.6493,-81.8810,2.11,28.71,2 
SCCF RECON,ioos:station:SCCF:53:1,2010-05-10T13:00:00Z,26.6493,-81.8810,2.11,28.43,2 
SCCF RECON,ioos:station:SCCF:53:1,2010-05-10T14:00:00Z,26.6493,-81.8810,2.11,28.4,2 
SCCF RECON,ioos:station:SCCF:53:1,2010-05-10T15:00:00Z,26.6493,-81.8810,2.11,28.71,2 
SCCF RECON,ioos:station:SCCF:53:1,2010-05-10T16:00:00Z,26.6493,-81.8810,2.11,28.88,2 
SCCF RECON,ioos:station:SCCF:53:1,2010-05-10T17:00:00Z,26.6493,-81.8810,2.11,29.22,2 
SCCF RECON,ioos:station:SCCF:53:1,2010-05-10T18:00:00Z,26.6493,-81.8810,2.11,29.3,2 
SCCF RECON,ioos:station:SCCF:53:1,2010-05-10T19:00:00Z,26.6493,-81.8810,2.11,29.43,2 
SCCF RECON,ioos:station:SCCF:53:1,2010-05-10T20:00:00Z,26.6493,-81.8810,2.11,29.78,2 
SCCF RECON,ioos:station:SCCF:53:1,2010-05-10T21:00:00Z,26.6493,-81.8810,2.11,29.46,2 
SCCF RECON,ioos:station:SCCF:53:1,2010-05-10T22:00:00Z,26.6493,-81.8810,2.11,29.52,2 
SCCF RECON,ioos:station:SCCF:53:1,2010-05-10T23:00:00Z,26.6493,-81.8810,2.11,29.38,2 
SCCF RECON,ioos:station:SCCF:53:1,2010-05-11T00:00:00Z,26.6493,-81.8810,2.11,29.36,2 
SCCF RECON,ioos:station:SCCF:53:1,2010-05-11T01:00:00Z,26.6493,-81.8810,2.11,29.15,2 
SCCF RECON,ioos:station:SCCF:53:1,2010-05-11T02:00:00Z,26.6493,-81.8810,2.11,29.14,2 
SCCF RECON,ioos:station:SCCF:53:1,2010-05-11T03:00:00Z,26.6493,-81.8810,2.11,29.07,2 
SCCF RECON,ioos:station:SCCF:53:1,2010-05-11T04:00:00Z,26.6493,-81.8810,2.11,28.89,2 
SCCF RECON,ioos:station:SCCF:53:1,2010-05-11T05:00:00Z,26.6493,-81.8810,2.11,28.73,2 
SCCF RECON,ioos:station:SCCF:53:1,2010-05-11T06:00:00Z,26.6493,-81.8810,2.11,28.58,2 
SCCF RECON,ioos:station:SCCF:53:1,2010-05-11T07:00:00Z,26.6493,-81.8810,2.11,28.42,2 
SCCF RECON,ioos:station:SCCF:53:1,2010-05-11T08:00:00Z,26.6493,-81.8810,2.11,28.3,2 
SCCF RECON,ioos:station:SCCF:53:1,2010-05-11T09:00:00Z,26.6493,-81.8810,2.11,28.17,2 
SCCF RECON,ioos:station:SCCF:53:1,2010-05-11T10:00:00Z,26.6493,-81.8810,2.11,28.16,2 
SCCF RECON,ioos:station:SCCF:53:1,2010-05-11T11:00:00Z,26.6493,-81.8810,2.11,28.14,2 
SCCF RECON,ioos:station:SCCF:53:1,2010-05-11T12:00:00Z,26.6493,-81.8810,2.11,28.1,2 
SCCF RECON,ioos:station:SCCF:53:1,2010-05-11T13:00:00Z,26.6493,-81.8810,2.11,28.09,2 
SCCF RECON,ioos:station:SCCF:53:1,2010-05-11T14:00:00Z,26.6493,-81.8810,2.11,28.18,2 
SCCF RECON,ioos:station:SCCF:53:1,2010-05-11T15:00:00Z,26.6493,-81.8810,2.11,28.12,2 
SCCF RECON,ioos:station:SCCF:53:1,2010-05-11T16:00:00Z,26.6493,-81.8810,2.11,28.11,2 
SCCF RECON,ioos:station:SCCF:53:1,2010-05-11T17:00:00Z,26.6493,-81.8810,2.11,28.45,2 
SCCF RECON,ioos:station:SCCF:53:1,2010-05-11T18:00:00Z,26.6493,-81.8810,2.11,28.46,2 
SCCF RECON,ioos:station:SCCF:53:1,2010-05-11T19:00:00Z,26.6493,-81.8810,2.11,28.38,2 
SCCF RECON,ioos:station:SCCF:53:1,2010-05-11T20:00:00Z,26.6493,-81.8810,2.11,28.6,2 
SCCF RECON,ioos:station:SCCF:53:1,2010-05-11T21:00:00Z,26.6493,-81.8810,2.11,28.64,2 
SCCF RECON,ioos:station:SCCF:53:1,2010-05-11T22:00:00Z,26.6493,-81.8810,2.11,28.88,2 
SCCF RECON,ioos:station:SCCF:53:1,2010-05-11T23:00:00Z,26.6493,-81.8810,2.11,29.07,2 
SCCF RECON,ioos:station:SCCF:53:1,2010-05-12T00:00:00Z,26.6493,-81.8810,2.11,28.83,2 
SCCF RECON,ioos:station:SCCF:53:1,2010-05-12T01:00:00Z,26.6493,-81.8810,2.11,28.54,2 
SCCF RECON,ioos:station:SCCF:53:1,2010-05-12T02:00:00Z,26.6493,-81.8810,2.11,28.45,2 
SCCF RECON,ioos:station:SCCF:53:1,2010-05-12T03:00:00Z,26.6493,-81.8810,2.11,28.37,2 
SCCF RECON,ioos:station:SCCF:53:1,2010-05-12T04:00:00Z,26.6493,-81.8810,2.11,28.36,2 
SCCF RECON,ioos:station:SCCF:53:1,2010-05-12T05:00:00Z,26.6493,-81.8810,2.11,28.2,2 
SCCF RECON,ioos:station:SCCF:53:1,2010-05-12T06:00:00Z,26.6493,-81.8810,2.11,28.13,2 
SCCF RECON,ioos:station:SCCF:53:1,2010-05-12T07:00:00Z,26.6493,-81.8810,2.11,28.09,2 
SCCF RECON,ioos:station:SCCF:53:1,2010-05-12T08:00:00Z,26.6493,-81.8810,2.11,28.03,2 
SCCF RECON,ioos:station:SCCF:53:1,2010-05-12T09:00:00Z,26.6493,-81.8810,2.11,27.89,2 
SCCF RECON,ioos:station:SCCF:53:1,2010-05-12T10:00:00Z,26.6493,-81.8810,2.11,27.69,2 
SCCF RECON,ioos:station:SCCF:53:1,2010-05-12T11:00:00Z,26.6493,-81.8810,2.11,27.59,2 
SCCF RECON,ioos:station:SCCF:53:1,2010-05-12T12:00:00Z,26.6493,-81.8810,2.11,27.61,2 
SCCF RECON,ioos:station:SCCF:53:1,2010-05-12T13:00:00Z,26.6493,-81.8810,2.11,27.56,2 